KZ1X Weather Reports


Display with metric or nautical units.
time (UTC)temp
F
wind
direction
speed
MPH
gust
MPH
rain 1hr
in
rain 24hr
in
rain mn
in
humidity
%
barometer
mb
20260902234545 85 0 0.0 0.0 0.00 0.00 0.00 76 1016.8
20260902233048 86 0 0.0 0.0 0.00 0.00 0.00 74 1016.7
20260902231550 86 0 0.0 0.0 0.00 0.00 0.00 72 1016.8
20260902230049 87 0 0.0 0.0 0.00 0.00 0.00 71 1016.7
20260902224606 88 0 0.0 0.0 0.00 0.00 0.00 71 1016.6
20260902223108 89 0 0.0 0.0 0.00 0.00 0.00 69 1016.5
20260902221549 89 0 0.0 0.0 0.00 0.00 0.00 68 1016.5
20260902220048 90 0 0.0 1.0 0.00 0.00 0.00 67 1016.4
20260902214612 91 0 0.0 1.0 0.00 0.00 0.00 66 1016.6
20260902213052 93 0 0.0 1.0 0.00 0.00 0.00 61 1016.7
20260902211552 94 83 0.0 2.0 0.00 0.00 0.00 57 1016.7
20260902210049 94 141 0.0 2.0 0.00 0.00 0.00 56 1016.5
20260902204547 96 0 0.0 2.0 0.00 0.00 0.00 58 1016.6
20260902203051 96 80 0.0 2.0 0.00 0.00 0.00 53 1016.8
20260902201558 96 0 0.0 2.0 0.00 0.00 0.00 52 1016.9
20260902200047 96 89 0.0 1.0 0.00 0.00 0.00 52 1017.0
20260902194549 97 0 0.0 4.0 0.00 0.00 0.00 52 1017.2
20260902193041 96 171 0.0 5.0 0.00 0.00 0.00 54 1017.3
20260902191548 96 96 1.0 4.0 0.00 0.00 0.00 55 1017.4
20260902190049 96 59 1.0 4.0 0.00 0.00 0.00 52 1017.6
20260902184544 96 0 0.0 1.0 0.00 0.00 0.00 56 1017.8
20260902183051 96 0 0.0 4.0 0.00 0.00 0.00 55 1017.9
20260902181550 96 210 0.0 3.0 0.00 0.00 0.00 52 1018.1
20260902180050 96 0 0.0 3.0 0.00 0.00 0.00 56 1018.1
20260902174551 96 15 0.0 1.0 0.00 0.00 0.00 56 1018.3
20260902173044 96 94 0.0 1.0 0.00 0.00 0.00 57 1018.5
20260902171551 94 148 0.0 5.0 0.00 0.00 0.00 59 1018.5
20260902170047 95 0 0.0 1.0 0.00 0.00 0.00 63 1018.7
20260902164553 94 56 1.0 2.0 0.00 0.00 0.00 59 1018.8
20260902163040 94 0 0.0 3.0 0.00 0.00 0.00 58 1019.0
20260902161550 93 4 0.0 4.0 0.00 0.00 0.00 62 1019.0
20260902160047 93 126 0.0 2.0 0.00 0.00 0.00 61 1019.2
20260902154546 92 248 0.0 3.0 0.00 0.00 0.00 63 1019.1
20260902153041 91 0 0.0 3.0 0.00 0.00 0.00 66 1019.2
20260902151549 89 0 0.0 1.0 0.00 0.00 0.00 69 1019.1
20260902150044 87 0 0.0 1.0 0.00 0.00 0.00 72 1019.2
20260902144554 86 278 0.0 3.0 0.00 0.00 0.00 74 1019.1
20260902143051 84 0 0.0 1.0 0.00 0.00 0.00 78 1018.9
20260902141543 83 94 0.0 3.0 0.00 0.00 0.00 80 1018.9
20260902140047 82 79 0.0 3.0 0.00 0.00 0.00 84 1019.0
20260902134544 80 244 0.0 4.0 0.00 0.00 0.00 89 1019.1
20260902133056 78 0 0.0 1.0 0.00 0.00 0.00 92 1018.9
20260902131558 77 0 0.0 1.0 0.00 0.00 0.00 94 1019.1
20260902130048 75 0 0.0 0.0 0.00 0.00 0.00 98 1019.1
20260902124542 74 0 0.0 0.0 0.00 0.00 0.00 99 1019.1
20260902123048 73 0 0.0 0.0 0.00 0.00 0.00 99 1019.1
20260902121548 72 0 0.0 0.0 0.00 0.00 0.00 98 1019.1
20260902120047 72 0 0.0 0.0 0.00 0.00 0.00 98 1018.9
20260902114553 72 0 0.0 0.0 0.00 0.00 0.00 98 1019.0
20260902113054 72 0 0.0 0.0 0.00 0.00 0.00 98 1019.1
20260902111545 72 0 0.0 0.0 0.00 0.00 0.00 98 1018.9
20260902110044 72 0 0.0 0.0 0.00 0.00 0.00 98 1018.7
20260902104600 72 0 0.0 0.0 0.00 0.00 0.00 98 1018.7
20260902103058 72 0 0.0 0.0 0.00 0.00 0.00 98 1018.6
20260902101550 72 0 0.0 0.0 0.00 0.00 0.00 98 1018.5
20260902100046 72 0 0.0 0.0 0.00 0.00 0.00 98 1018.4
20260902094540 72 0 0.0 0.0 0.00 0.00 0.00 98 1018.3
20260902093047 72 0 0.0 0.0 0.00 0.00 0.00 97 1018.2
20260902091542 72 0 0.0 0.0 0.00 0.00 0.00 97 1018.3
20260902090048 73 0 0.0 0.0 0.00 0.00 0.00 97 1018.1
20260902084547 73 0 0.0 0.0 0.00 0.00 0.00 97 1018.1
20260902083106 73 0 0.0 0.0 0.00 0.00 0.00 97 1017.8
20260902081543 73 0 0.0 0.0 0.00 0.00 0.00 97 1018.1
20260902080047 73 0 0.0 0.0 0.00 0.00 0.00 96 1017.8
20260902074547 73 0 0.0 0.0 0.00 0.00 0.00 96 1017.7
20260902073042 73 0 0.0 0.0 0.00 0.00 0.00 96 1017.7
20260902071548 73 0 0.0 0.0 0.00 0.00 0.00 96 1018.0
20260902070049 73 0 0.0 0.0 0.00 0.00 0.00 96 1017.9
20260902064548 74 0 0.0 0.0 0.00 0.00 0.00 95 1018.2
20260902063043 74 0 0.0 0.0 0.00 0.00 0.00 95 1018.0
20260902061553 74 0 0.0 0.0 0.00 0.00 0.00 95 1018.3
20260902060055 74 0 0.0 0.0 0.00 0.00 0.00 95 1018.1
20260902054550 74 0 0.0 0.0 0.00 0.00 0.00 95 1018.1
20260902053043 74 0 0.0 0.0 0.00 0.00 0.00 94 1017.9
20260902051540 74 0 0.0 0.0 0.00 0.00 0.00 94 1017.8
20260902050055 74 0 0.0 0.0 0.00 0.00 0.00 94 1017.8
20260902044550 75 0 0.0 0.0 0.00 0.00 0.00 94 1017.7
20260902043050 75 0 0.0 0.0 0.00 0.00 0.00 94 1017.6
20260902041548 75 0 0.0 0.0 0.00 0.00 0.00 94 1017.5
20260902040050 76 0 0.0 0.0 0.00 0.00 0.00 94 1017.6
20260902034544 76 0 0.0 0.0 0.00 0.00 0.00 93 1017.7
20260902033044 76 0 0.0 0.0 0.00 0.00 0.00 92 1017.6
20260902031551 76 0 0.0 0.0 0.00 0.00 0.00 92 1017.5
20260902030045 76 0 0.0 0.0 0.00 0.00 0.00 91 1017.6
20260902024546 77 0 0.0 0.0 0.00 0.00 0.00 90 1017.5
20260902023048 77 0 0.0 0.0 0.00 0.00 0.00 90 1017.5
20260902021547 77 0 0.0 0.0 0.00 0.00 0.00 90 1017.4
20260902020046 78 0 0.0 0.0 0.00 0.00 0.00 89 1017.2
20260902014547 78 0 0.0 0.0 0.00 0.00 0.00 89 1017.0
20260902013043 78 0 0.0 0.0 0.00 0.00 0.00 89 1016.8
20260902011612 79 0 0.0 0.0 0.00 0.00 0.00 88 1016.8
20260902010047 79 0 0.0 0.0 0.00 0.00 0.00 87 1016.6
20260902004549 80 0 0.0 0.0 0.00 0.00 0.00 86 1016.3
20260902003053 81 0 0.0 0.0 0.00 0.00 0.00 85 1016.3
20260902001544 81 0 0.0 0.0 0.00 0.00 0.00 84 1016.3
20260902000044 82 0 0.0 0.0 0.00 0.00 0.00 83 1016.2